TimeEST,TemperatureF,Dew PointF,Humidity,Sea Level PressureIn,VisibilityMPH,Wind Direction,Wind SpeedMPH,Gust SpeedMPH,PrecipitationIn,Events,Conditions,WindDirDegrees,DateUTC
12:53 AM,26.1,19.0,75,30.08,10.0,Calm,Calm,-,N/A,,Clear,0,2012-11-09 05:53:00
1:53 AM,28.0,21.9,78,30.09,10.0,WSW,5.8,-,N/A,,Clear,250,2012-11-09 06:53:00
2:53 AM,28.0,23.0,81,30.10,10.0,SW,9.2,-,N/A,,Clear,220,2012-11-09 07:53:00
3:53 AM,23.0,19.0,85,30.12,10.0,Calm,Calm,-,N/A,,Clear,0,2012-11-09 08:53:00
4:53 AM,24.1,21.0,88,30.13,10.0,SW,4.6,-,N/A,,Clear,220,2012-11-09 09:53:00
5:53 AM,26.1,21.9,84,30.14,10.0,SSW,6.9,-,N/A,,Clear,210,2012-11-09 10:53:00
6:53 AM,26.1,21.9,84,30.17,9.0,SW,3.5,-,N/A,,Clear,220,2012-11-09 11:53:00
7:53 AM,28.0,24.1,85,30.18,9.0,SW,4.6,-,N/A,,Partly Cloudy,230,2012-11-09 12:53:00
8:53 AM,34.0,28.0,79,30.19,9.0,SW,4.6,-,N/A,,Overcast,220,2012-11-09 13:53:00
9:53 AM,37.9,30.0,73,30.20,10.0,West,4.6,-,N/A,,Overcast,260,2012-11-09 14:53:00
10:53 AM,42.1,30.0,62,30.20,10.0,West,9.2,-,N/A,,Overcast,260,2012-11-09 15:53:00
11:53 AM,44.1,30.9,60,30.19,10.0,West,8.1,-,N/A,,Overcast,270,2012-11-09 16:53:00
12:53 PM,45.0,30.9,58,30.18,10.0,West,8.1,-,N/A,,Overcast,270,2012-11-09 17:53:00
1:53 PM,46.0,32.0,58,30.17,10.0,WSW,8.1,-,N/A,,Overcast,250,2012-11-09 18:53:00
2:53 PM,48.0,32.0,54,30.15,10.0,West,10.4,-,N/A,,Overcast,260,2012-11-09 19:53:00
3:53 PM,48.0,32.0,54,30.15,10.0,West,4.6,-,N/A,,Mostly Cloudy,260,2012-11-09 20:53:00
4:53 PM,45.0,34.0,65,30.16,10.0,NNW,3.5,-,N/A,,Clear,330,2012-11-09 21:53:00
5:53 PM,37.0,30.9,79,30.18,10.0,Calm,Calm,-,N/A,,Partly Cloudy,0,2012-11-09 22:53:00
6:53 PM,34.0,30.9,89,30.18,10.0,Calm,Calm,-,N/A,,Clear,0,2012-11-09 23:53:00
7:53 PM,34.0,30.0,85,30.20,9.0,Calm,Calm,-,N/A,,Mostly Cloudy,0,2012-11-10 00:53:00
8:53 PM,36.0,33.1,89,30.20,9.0,Calm,Calm,-,N/A,,Overcast,0,2012-11-10 01:53:00
9:53 PM,37.0,34.0,89,30.22,8.0,Calm,Calm,-,N/A,,Overcast,0,2012-11-10 02:53:00
10:53 PM,37.9,34.0,86,30.23,9.0,Calm,Calm,-,N/A,,Overcast,0,2012-11-10 03:53:00
11:53 PM,34.0,32.0,92,30.23,8.0,SW,3.5,-,N/A,,Partly Cloudy,220,2012-11-10 04:53:00